weather.gov     
National Weather Service

Regional Weather Roundup
NWS Homepage
This page is being discontinued on March 12, 2014.
The same data is available at this site. Please update your bookmarks.
Thank you, and we apologize for the inconvenience.
Please send an email to SR-SRH.Webmaster@noaa.gov with any concerns.


Current Version
Previous Version:    01  02  03  04  05  06  07  08  09  10  11  12  13  14  15  16  17  18  19  20  21  22  23  24  25  26  27  28  29  30  
   31  32  33  34  35  36  37  38  39  40  41  42  43  44  45  46  47  48  49  50  51  52  53  54  55  56  57  58  59  60  
[Printable]
039
ASUS44 KFWD 241303
RWRTX
NORTH TEXAS HOURLY WEATHER ROUNDUP
NATIONAL WEATHER SERVICE FORT WORTH TX
800 AM CDT THU JUL 24 2014

NOTE: "FAIR" INDICATES FEW OR NO CLOUDS BELOW 12,000 FEET WITH NO
SIGNIFICANT WEATHER AND/OR OBSTRUCTIONS TO VISIBILITY.

TXZ118-119-241400-
DALLAS/FORT WORTH METROPLEX

CITY           SKY/WX    TMP DP  RH WIND       PRES   REMARKS
DFW AIRPORT    PTSUNNY   76  69  79 SE7       30.07R
DALLAS LOVE    PTSUNNY   75  70  84 E6        30.07R
FTW MEACHAM    PTSUNNY   79  66  64 E6        30.07R
DAL-EXECUTIVE  MOSUNNY   75  69  81 E5        30.07R
FTW-ALLIANCE   PTSUNNY   76  67  73 CALM      30.07R
FTW-NAS-JRB    PTSUNNY   80  65  59 E6        30.11R
FTW-SPINKS     MOSUNNY   75  66  73 CALM      30.09R
ARLINGTON      MOSUNNY   77  67  71 E3        30.07R
GRAND PRAIRIE  MOSUNNY   75  66  73 CALM      30.08R
ADDISON        PTSUNNY   73  68  83 E8        30.08R
LANCASTER      MOSUNNY   73  67  81 CALM      30.08R
$$

TXZ091>094-102>105-117-120-121-131>134-241400-
NORTH CENTRAL TEXAS

CITY           SKY/WX    TMP DP  RH WIND       PRES   REMARKS
SHRMAN/DENISON FOG       70  68  94 CALM      30.10R VSB 1
GAINESVILLE    SUNNY     73  68  86 CALM      30.11R
BOWIE          MOSUNNY   74  71  89 E3        30.09R
BRIDGEPORT     PTSUNNY   74  66  75 CALM      30.10R
DECATUR        MOSUNNY   73  68  83 E5        30.09S
DENTON         MOSUNNY   77  70  79 E6        30.07S
MCKINNEY       FOG       70  70 100 SE5       30.08R VSB 1
GREENVILLE     MOSUNNY   72  68  88 CALM      30.09R
ROCKWALL       CLOUDY    71  69  95 E5        30.08R
TERRELL        MOSUNNY   72  70  93 CALM      30.08S
WAXAHACHIE     CLOUDY    73  66  78 CALM      30.09R
CLEBURNE       MOSUNNY   77  70  78 NE3       30.09R
GRANBURY       PTSUNNY   78  67  68 E6        30.09R
$$

TXZ083>090-098>101-113>116-127>130-139>142-154-155-241400-
WESTERN NORTH TEXAS

CITY           SKY/WX    TMP DP  RH WIND       PRES   REMARKS
WICHITA FALLS  SUNNY     75  72  90 E8        30.06R
WF-KICKAPOO    SUNNY     77  73  87 E10       30.08R
VERNON         SUNNY     76  71  86 NE3       30.07S
ABILENE        SUNNY     77  66  68 SW3       30.10R
ABILENE-DYESS  SUNNY     76  67  73 W1        30.09R
BRECKENRIDGE   SUNNY     77  67  70 CALM      30.07R HAZE
MINERAL WELLS  MOSUNNY   74  66  76 E3        30.07R
STEPHENVILLE   PTSUNNY   75  68  78 CALM      30.12R
COMANCHE       MOSUNNY   73  70  91 CALM      30.09S
BROWNWOOD      MOSUNNY   73  68  83 CALM      30.09R FOG
COLEMAN        SUNNY     74  66  76 CALM      30.09S
BRADY          SUNNY     75  70  83 CALM      30.10R
$$

TXZ143>147-156>162-174-175-241400-
CENTRAL TEXAS

CITY           SKY/WX    TMP DP  RH WIND       PRES   REMARKS
WACO           SUNNY     76  68  76 CALM      30.06S
WACO-TSTC      SUNNY     75  68  78 CALM      30.06R
WACO-MCGREGOR  SUNNY     75  66  73 SE3       30.08R
CORSICANA      SUNNY     74  70  87 CALM      30.08R
MEXIA          CLOUDY    73  70  91 CALM      30.06R
HEARNE         CLOUDY    83  82  97 CALM      30.06R HX  97
CAMERON        CLOUDY    74  73  95 CALM      30.04S
TEMPLE         PTSUNNY   73  66  78 CALM      30.06S
KILLEEN        PTSUNNY   79  70  73 E9        30.07R
KILLEEN-SKYLRK PTSUNNY   75  64  69 E6        30.07R
FORT HOOD      PTSUNNY   78  69  73 E6        30.07R
GATESVILLE     PTSUNNY   75  68  78 E3        30.09S
HAMILTON       PTSUNNY   76  68  77 E7        30.10R
LAMPASAS       CLOUDY    76  70  84 CALM      30.07S
$$

TXZ095>097-106>112-122>126-135>138-148>153-164>167-241400-
EAST TEXAS

CITY           SKY/WX    TMP DP  RH WIND       PRES   REMARKS
PARIS          CLOUDY    68  63  83 CALM      30.09R VSB<1/4
SULPHUR SPRNGS CLOUDY    70  68  94 CALM      30.09F FOG
CLARKSVILLE    CLOUDY    69  68  99 CALM      30.08R VSB 1/4
MOUNT PLEASANT CLOUDY    68  68  99 CALM      30.09S VSB 1/4
GILMER         FOG       70  70 100 CALM      30.09S VSB 3/4
MINEOLA        CLOUDY    70  70 100 CALM      30.08S FOG
TYLER          SUNNY     71  67  87 CALM      30.07S
LONGVIEW       CLOUDY    70  68  93 NW3       30.06S FOG
MARSHALL       CLOUDY    71  69  93 N6        30.08F
JACKSONVILLE   SUNNY     71  69  93 N3        30.09R
HENDERSON      FOG       68  68 100 CALM      30.08R VSB 3/4
NACOGDOCHES    SUNNY     70  70 100 N5        30.06R
LUFKIN         SUNNY     74  68  81 NW5       30.05R
$$

SUPPLEMENTAL OBSERVATIONS (CENTRAL)

CITY           SKY/WX    TMP DP  RH WIND       PRES   REMARKS
$$

SUPPLEMENTAL OBSERVATIONS (WEST)

CITY           SKY/WX    TMP DP  RH WIND       PRES   REMARKS
$$

SUPPLEMENTAL OBSERVATIONS (EAST)

CITY           SKY/WX    TMP DP  RH WIND       PRES   REMARKS
$$

SUPPLEMENTAL OBSERVATIONS ARE A COLLECTION OF AUTOMATED INSTRUMENTS
THAT ARE MAINTAINED BY A VARIETY OF FEDERAL AND STATE AGENCIES.
CERTAIN ELEMENTS...SUCH AS HUMIDITY VALUES AND SUSTAINED WIND
SPEEDS...MAY BE APPROXIMATED.





U.S. Dept. of Commerce
NOAA National Weather Service
1325 East West Highway
Silver Spring, MD 20910
E-mail: w-nws.webmaster@noaa.gov
Page last modified: May 16, 2007
NATIONAL WEATHER SERVICE: for Safety, for Work, for Fun - FOR LIFE